EW8775 Weather Reports


Display with metric or nautical units.
time (UTC)temp
F
wind
direction
speed
MPH
gust
MPH
rain 1hr
in
rain 24hr
in
rain mn
in
humidity
%
barometer
mb
20260510120016 52 0.0 3.0 0.00 0.00 0.00 39 1020.3
20260510113016 53 113 1.0 6.0 0.00 0.00 0.00 36 1020.4
20260510110016 52 90 1.0 4.0 0.00 0.00 0.00 34 1020.1
20260510103056 52 0.0 3.0 0.00 0.00 0.00 40 1020.1
20260510100056 52 0.0 0.0 0.00 0.00 0.00 40 1020.1
20260510093015 53 0.0 0.0 0.00 0.00 0.00 36 1019.8
20260510090017 54 0.0 0.0 0.00 0.00 0.00 31 1019.5
20260510083017 55 0.0 0.0 0.00 0.00 0.00 29 1019.2
20260510080018 56 0.0 3.0 0.00 0.00 0.00 28 1019.4
20260510073015 56 0.0 0.0 0.00 0.00 0.00 26 1019.0
20260510070017 57 0.0 0.0 0.00 0.00 0.00 24 1018.9
20260510063057 58 0.0 4.0 0.00 0.00 0.00 22 1018.7
20260510060017 58 0.0 3.0 0.00 0.00 0.00 24 1018.0
20260510053016 59 0.0 3.0 0.00 0.00 0.00 22 1017.7
20260510050016 60 113 2.0 6.0 0.00 0.00 0.00 21 1018.1
20260510043016 60 0.0 4.0 0.00 0.00 0.00 22 1017.3
20260510040016 61 0.0 1.0 0.00 0.00 0.00 22 1017.0
20260510033016 62 0.0 1.0 0.00 0.00 0.00 19 1016.4
20260510030056 65 0.0 4.0 0.00 0.00 0.00 18 1015.8
20260510023016 68 338 1.0 8.0 0.00 0.00 0.00 15 1015.2
20260510020016 70 338 3.0 13.0 0.00 0.00 0.00 14 1015.2
20260510013016 71 338 5.0 16.0 0.00 0.00 0.00 14 1015.2
20260510010015 71 338 6.0 17.0 0.00 0.00 0.00 14 1015.3
20260510003057 71 338 8.0 19.0 0.00 0.00 0.00 15 1015.6
20260510000057 72 338 7.0 20.0 0.00 0.00 0.00 17 1015.6
20260509233057 72 338 8.0 19.0 0.00 0.00 0.00 12 1015.9
20260509230018 73 338 10.0 21.0 0.00 0.00 0.00 14 1016.2
20260509223017 73 338 7.0 18.0 0.00 0.00 0.00 18 1016.7
20260509220017 72 338 8.0 21.0 0.00 0.00 0.00 18 1016.6
20260509213057 71 338 8.0 18.0 0.00 0.00 0.00 17 1016.7
20260509210017 71 338 8.0 19.0 0.00 0.00 0.00 18 1016.9
20260509203057 70 338 8.0 19.0 0.00 0.00 0.00 22 1017.4
20260509200017 70 338 6.0 16.0 0.00 0.00 0.00 21 1018.0
20260509193017 69 315 6.0 16.0 0.00 0.00 0.00 19 1017.4
20260509190017 68 315 8.0 20.0 0.00 0.00 0.00 19 1017.9
20260509183017 68 338 9.0 21.0 0.00 0.00 0.00 19 1017.9
20260509180017 67 315 6.0 18.0 0.00 0.00 0.00 18 1017.6
20260509173017 66 338 4.0 16.0 0.00 0.00 0.00 17 1017.6
20260509170016 68 338 2.0 16.0 0.00 0.00 0.00 14 1017.8
20260509163056 65 180 4.0 17.0 0.00 0.00 0.00 26 1017.6
20260509160017 63 158 4.0 10.0 0.00 0.00 0.00 36 1018.1
20260509153016 61 203 1.0 7.0 0.00 0.00 0.00 42 1018.0
20260509150056 58 0.0 4.0 0.00 0.00 0.00 46 1017.3
20260509143016 53 0.0 4.0 0.00 0.00 0.00 52 1017.0
20260509140016 52 0.0 4.0 0.00 0.00 0.00 52 1016.8
20260509133016 52 0.0 4.0 0.00 0.00 0.00 51 1016.8
20260509130016 52 0.0 4.0 0.00 0.00 0.00 49 1016.5
20260509123056 53 0.0 3.0 0.00 0.00 0.00 48 1016.4